• In Schweiz
  • Länderverzeichnis
  • Für 7 Tage
  • Wassertemperatur
  • Satellitenkarten
  • Wetterkarte
  • Widgets
  • user-avatar
    Anmelden

    Stündliche Wetter Townsville

    Heute, 18 Juni, Montag

    Zeit Temperatur Niederschläge Wind Luftdruck Luftfeuchtigkeit
    00:00 +18°C° 0 mm 4 m/S 758 mmHg 41%
    01:00 +17°C° 0 mm 4 m/S 758 mmHg 41%
    02:00 +16°C° 0 mm 5 m/S 758 mmHg 38%
    03:00 +15°C° 0 mm 5 m/S 758 mmHg 35%
    04:00 +15°C° 0 mm 6 m/S 758 mmHg 31%
    05:00 +15°C° 0 mm 6 m/S 758 mmHg 31%
    06:00 +14°C° 0 mm 6 m/S 758 mmHg 31%
    07:00 +14°C° 0 mm 6 m/S 758 mmHg 30%
    08:00 +15°C° 0 mm 6 m/S 758 mmHg 29%
    09:00 +17°C° 0 mm 6 m/S 759 mmHg 28%
    10:00 +20°C° 0 mm 5 m/S 759 mmHg 27%
    11:00 +22°C° 0 mm 5 m/S 758 mmHg 26%
    12:00 +23°C° 0 mm 5 m/S 758 mmHg 24%
    13:00 +26°C° 0 mm 5 m/S 757 mmHg 22%
    14:00 +26°C° 0 mm 4 m/S 757 mmHg 21%
    15:00 +25°C° 0 mm 4 m/S 757 mmHg 21%
    16:00 +25°C° 0 mm 3 m/S 756 mmHg 20%
    17:00 +22°C° 0 mm 3 m/S 757 mmHg 23%
    18:00 +20°C° 0 mm 4 m/S 757 mmHg 26%
    19:00 +17°C° 0 mm 4 m/S 758 mmHg 28%
    20:00 +15°C° 0 mm 4 m/S 758 mmHg 28%
    21:00 +14°C° 0 mm 4 m/S 758 mmHg 28%
    22:00 +13°C° 0 mm 5 m/S 759 mmHg 28%
    23:00 +13°C° 0 mm 5 m/S 759 mmHg 28%

    Morgen, 19 Juni, Dienstag

    Zeit Temperatur Niederschläge Wind Luftdruck Luftfeuchtigkeit
    00:00 +12°C° 0 mm 5 m/S 759 mmHg 29%
    01:00 +10°C° 0 mm 5 m/S 759 mmHg 30%
    02:00 +10°C° 0 mm 5 m/S 759 mmHg 31%
    03:00 +10°C° 0 mm 5 m/S 759 mmHg 32%
    04:00 +9°C° 0 mm 5 m/S 759 mmHg 33%
    05:00 +9°C° 0 mm 5 m/S 759 mmHg 35%
    06:00 +8°C° 0 mm 5 m/S 759 mmHg 37%
    07:00 +8°C° 0 mm 5 m/S 760 mmHg 38%
    08:00 +12°C° 0 mm 5 m/S 760 mmHg 35%
    09:00 +15°C° 0 mm 5 m/S 760 mmHg 32%
    10:00 +17°C° 0 mm 5 m/S 760 mmHg 28%
    11:00 +20°C° 0 mm 5 m/S 759 mmHg 25%
    12:00 +22°C° 0 mm 4 m/S 759 mmHg 21%
    13:00 +25°C° 0 mm 4 m/S 758 mmHg 18%
    14:00 +25°C° 0 mm 4 m/S 758 mmHg 18%
    15:00 +25°C° 0 mm 4 m/S 758 mmHg 18%
    16:00 +25°C° 0 mm 3 m/S 757 mmHg 18%
    17:00 +21°C° 0 mm 3 m/S 758 mmHg 23%
    18:00 +19°C° 0 mm 3 m/S 758 mmHg 29%
    19:00 +16°C° 0 mm 3 m/S 758 mmHg 34%
    20:00 +14°C° 0 mm 3 m/S 759 mmHg 36%
    21:00 +13°C° 0 mm 3 m/S 759 mmHg 39%
    22:00 +13°C° 0 mm 3 m/S 759 mmHg 41%
    23:00 +12°C° 0 mm 3 m/S 759 mmHg 41%

    übermorgen, 20 Juni, Mittwoch

    Zeit Temperatur Niederschläge Wind Luftdruck Luftfeuchtigkeit
    00:00 +11°C° 0 mm 3 m/S 759 mmHg 41%
    01:00 +11°C° 0 mm 3 m/S 759 mmHg 40%
    02:00 +11°C° 0 mm 3 m/S 759 mmHg 39%
    03:00 +10°C° 0 mm 3 m/S 759 mmHg 37%
    04:00 +10°C° 0 mm 4 m/S 758 mmHg 36%
    05:00 +10°C° 0 mm 4 m/S 759 mmHg 36%
    06:00 +8°C° 0 mm 4 m/S 759 mmHg 36%
    07:00 +8°C° 0 mm 4 m/S 759 mmHg 37%
    08:00 +12°C° 0 mm 4 m/S 759 mmHg 35%
    09:00 +17°C° 0 mm 4 m/S 759 mmHg 32%
    10:00 +20°C° 0 mm 4 m/S 760 mmHg 30%
    11:00 +22°C° 0 mm 4 m/S 759 mmHg 26%
    12:00 +24°C° 0 mm 3 m/S 758 mmHg 22%
    13:00 +26°C° 0 mm 3 m/S 758 mmHg 19%
    14:00 +26°C° 0 mm 3 m/S 757 mmHg 19%
    15:00 +26°C° 0 mm 3 m/S 757 mmHg 19%
    16:00 +26°C° 0 mm 3 m/S 757 mmHg 19%
    17:00 +22°C° 0 mm 3 m/S 757 mmHg 28%
    18:00 +19°C° 0 mm 3 m/S 757 mmHg 37%
    19:00 +16°C° 0 mm 2 m/S 758 mmHg 47%
    20:00 +15°C° 0 mm 2 m/S 758 mmHg 52%
    21:00 +14°C° 0 mm 2 m/S 759 mmHg 58%
    22:00 +14°C° 0 mm 2 m/S 759 mmHg 63%
    23:00 +13°C° 0 mm 3 m/S 759 mmHg 66%

    21 Juni, Donnerstag

    Zeit Temperatur Niederschläge Wind Luftdruck Luftfeuchtigkeit
    00:00 +12°C° 0 mm 3 m/S 759 mmHg 69%
    01:00 +12°C° 0 mm 3 m/S 759 mmHg 72%
    02:00 +12°C° 0 mm 3 m/S 759 mmHg 74%
    03:00 +11°C° 0 mm 3 m/S 758 mmHg 77%
    04:00 +11°C° 0 mm 3 m/S 758 mmHg 79%
    05:00 +11°C° 0 mm 3 m/S 759 mmHg 77%
    06:00 +11°C° 0 mm 3 m/S 759 mmHg 75%
    07:00 +11°C° 0 mm 3 m/S 759 mmHg 72%
    08:00 +14°C° 0 mm 3 m/S 759 mmHg 64%
    09:00 +18°C° 0 mm 3 m/S 759 mmHg 56%
    10:00 +21°C° 0 mm 4 m/S 760 mmHg 48%
    11:00 +22°C° 0 mm 4 m/S 759 mmHg 45%
    12:00 +25°C° 0 mm 4 m/S 758 mmHg 42%
    13:00 +26°C° 0 mm 4 m/S 758 mmHg 39%
    14:00 +25°C° 0 mm 4 m/S 757 mmHg 41%
    15:00 +25°C° 0 mm 4 m/S 757 mmHg 44%
    16:00 +25°C° 0 mm 4 m/S 757 mmHg 47%
    17:00 +22°C° 0 mm 4 m/S 757 mmHg 57%
    18:00 +19°C° 0 mm 4 m/S 758 mmHg 68%
    19:00 +17°C° 0 mm 4 m/S 758 mmHg 78%
    20:00 +17°C° 0 mm 4 m/S 758 mmHg 81%
    21:00 +17°C° 0 mm 4 m/S 759 mmHg 84%
    22:00 +15°C° 0 mm 4 m/S 759 mmHg 87%
    23:00 +15°C° 0 mm 4 m/S 759 mmHg 89%

    22 Juni, Freitag

    Zeit Temperatur Niederschläge Wind Luftdruck Luftfeuchtigkeit
    00:00 +15°C° 0 mm 4 m/S 759 mmHg 91%
    01:00 +14°C° 0 mm 3 m/S 758 mmHg 93%
    02:00 +14°C° 0 mm 3 m/S 758 mmHg 94%
    03:00 +14°C° 0 mm 4 m/S 758 mmHg 95%
    04:00 +14°C° 0 mm 4 m/S 757 mmHg 95%
    05:00 +14°C° 0,1 mm 4 m/S 758 mmHg 94%
    06:00 +14°C° 0,1 mm 4 m/S 758 mmHg 93%
    07:00 +14°C° 0,1 mm 4 m/S 758 mmHg 91%
    08:00 +18°C° 0 mm 4 m/S 759 mmHg 83%
    09:00 +20°C° 0 mm 4 m/S 759 mmHg 75%
    10:00 +23°C° 0 mm 4 m/S 759 mmHg 67%
    11:00 +23°C° 0,1 mm 4 m/S 759 mmHg 67%
    12:00 +23°C° 0,1 mm 4 m/S 758 mmHg 67%
    13:00 +25°C° 0,1 mm 4 m/S 757 mmHg 67%
    14:00 +25°C° 0,1 mm 5 m/S 757 mmHg 65%
    15:00 +25°C° 0,1 mm 5 m/S 757 mmHg 63%
    16:00 +26°C° 0,1 mm 5 m/S 757 mmHg 61%
    17:00 +23°C° 0,1 mm 5 m/S 757 mmHg 70%
    18:00 +21°C° 0,1 mm 5 m/S 758 mmHg 79%
    19:00 +20°C° 0,1 mm 5 m/S 758 mmHg 89%
    20:00 +19°C° 0,1 mm 5 m/S 759 mmHg 90%
    21:00 +19°C° 0,1 mm 5 m/S 759 mmHg 91%
    22:00 +19°C° 0,1 mm 5 m/S 759 mmHg 93%
    23:00 +17°C° 0,1 mm 5 m/S 759 mmHg 94%

    23 Juni, Samstag

    Zeit Temperatur Niederschläge Wind Luftdruck Luftfeuchtigkeit
    00:00 +17°C° 0,1 mm 5 m/S 758 mmHg 96%
    01:00 +16°C° 0,1 mm 5 m/S 758 mmHg 97%
    02:00 +16°C° 0 mm 5 m/S 758 mmHg 97%
    03:00 +16°C° 0 mm 5 m/S 758 mmHg 98%
    04:00 +16°C° 0 mm 5 m/S 758 mmHg 98%
    05:00 +16°C° 0 mm 5 m/S 758 mmHg 98%
    06:00 +16°C° 0 mm 5 m/S 758 mmHg 98%
    07:00 +16°C° 0 mm 5 m/S 759 mmHg 98%
    08:00 +19°C° 0 mm 5 m/S 759 mmHg 87%
    09:00 +21°C° 0 mm 6 m/S 759 mmHg 77%
    10:00 +24°C° 0 mm 6 m/S 759 mmHg 66%
    11:00 +26°C° 0 mm 6 m/S 759 mmHg 61%
    12:00 +27°C° 0 mm 6 m/S 758 mmHg 56%
    13:00 +28°C° 0 mm 6 m/S 758 mmHg 50%
    14:00 +27°C° 0 mm 6 m/S 757 mmHg 51%
    15:00 +27°C° 0 mm 7 m/S 757 mmHg 51%
    16:00 +26°C° 0 mm 7 m/S 757 mmHg 52%
    17:00 +24°C° 0 mm 6 m/S 757 mmHg 61%
    18:00 +22°C° 0 mm 6 m/S 758 mmHg 70%
    19:00 +20°C° 0 mm 5 m/S 758 mmHg 78%
    20:00 +19°C° 0 mm 6 m/S 759 mmHg 82%
    21:00 +19°C° 0 mm 6 m/S 759 mmHg 86%
    22:00 +19°C° 0 mm 6 m/S 759 mmHg 89%
    23:00 +17°C° 0,1 mm 6 m/S 759 mmHg 91%
    Mehr zeigen